Location: Risskov
(56.1972°N, 10.2480°E)
Time: 13:14:54
(UTC+00:00)

Cosmos 2366 rocket - Pass Details

Date: 05 July 2020
Orbit: 954 x 998 km, 82.9° (Epoch: 06 August)

Event Time Altitude Azimuth Distance (km) Brightness Sun altitude
Exits shadow 22:56:31 14° 177° (S) 2,482 5.4 -10.9°
Maximum altitude 23:02:03 70° 96° (E) 1,061 4.2 -11.0°
Drops below altitude 10° 23:08:22 10° 15° (NNE) 2,771 7.7 -11.1°
Sets 23:10:54 0° 13° (NNE) 3,719 8.7 -11.1°
